COSMOS 2251 DEB, 40236

Orbit data source: Space-Track

COSMOS 2251 DEB, 40236 is space debris in LEO originally from a launch on Wed, 16 Jun 1993 UTC launched from the Plesetsk Missile And Space Complex (PKMTR). The debris from Iridium 33, an American commercial communications satellite, has been tracked extensively since its accidental collision with the defunct Russian satellite Cosmos 2251 in 2009. This event, occurring at high speed in low Earth orbit (LEO), generated thousands of pieces of space debris, significantly increasing the risk of further collisions. The Iridium 33 debris cloud has impacted space traffic management and orbital debris mitigation strategies, making it a subject of ongoing study in space situational awareness.

Loading next visibility...
COSMOS 2251 DEB details
Identifier
40236, 1993-036BVR
Orbit
LEO
Last TLE update2 months ago
Origin
Flag of CISKVR (CIS)
ManufacturerUnknown
MissionSpacecraft
Bus & MotorUnknown
MassUnknown
Launch date (UTC)
1993-06-16 (31 years ago)
Launch vehicleUnknown
Launch site
Plesetsk Missile And Space Complex (PKMTR)
Object type
Payload
Rocket body
Debris
Shape & HBRUnknown
Radar Cross SectionSmall (<0.1 m²)

Expand to show TLE details & history

TLE from 2 months ago
0 COSMOS 2251 DEB
1 40236U 93036BVR 24293.70309052  .00005336  00000-0  57947-2 0  9993
2 40236  73.5376  83.4476 0542403   2.0786 358.2378 13.23188478480789
Epoch: 2024-10-19T16:52Z
Definitive object data (Epoch: 2024-10-19T16:52:27.02Z)
Latitude-0.00006°
Longitude161.68034°
Altitude765.622 km
Speed7.671 km/s
True Right ascension05h 33m 47s
True Declination0° 00' 00"
Sunlit
Object was in full shadow at TLE epoch
Visualization TLE readout
Latitude59.8135°
Longitude118.57937°
Altitude1,482.733 km
Speed6.983 km/s
Apparent Right ascension23h 01m 17s
Apparent Declination24° 27' 05"
Sunlit
Object is in full shadow
Visualization observer readout
Local Sidereal Time08:15:20
Azimuth321.384° NNW
Elevation-14.916°
Doppler factor1
Orbital elements
Apogee altitude1,579.779 km
Perigee altitude760.915 km
Semi-major axis7,548.484 km
Eccentricity0.0542403
Inclination73.5376°
RAAN83.4476°
Arg. of periapsis2.0786°
True anomaly358.03282°
Mean anomaly358.2378°
Eccentric anomaly358.13675°
Mean motion3.30943 °/min
BSTAR0.0057947
Orbital period108.78 mins
Loading maneuver chart data...

COSMOS 2251 DEB Visibility forecast

Observer location: undefined°, undefined

Span
Click to sort rows by Start time (UTC) header in descending order
Start Az.
Max El. time (UTC)
Max El. Az.
Max El.
End time (UTC)
End Az.
16 mins2024-12-05 12:19:58.130Z352.971° N2024-12-05 12:27:58.130Z52.829° ENE31.262°2024-12-05 12:35:58.130Z121.687° SE
16 mins2024-12-05 14:11:58.130Z331.103° NNW2024-12-05 14:19:58.130Z255.205° W40.043°2024-12-05 14:27:58.130Z183.134° SSW
13 mins2024-12-06 02:22:58.130Z154.353° SSE2024-12-06 02:28:58.130Z88.968° E30.894°2024-12-06 02:35:58.130Z34.619° NE
14 mins2024-12-06 04:12:58.130Z228.091° WSW2024-12-06 04:18:58.130Z291.721° WNW36.942°2024-12-06 04:26:58.130Z9.294° NNE
5 mins2024-12-06 06:10:58.130Z308.184° NW2024-12-06 06:12:58.130Z322.35° NNW12.262°2024-12-06 06:15:58.130Z342.661° N
|